DW5272 Weather Reports


Display with metric or nautical units.
time (UTC)temp
F
wind
direction
speed
MPH
gust
MPH
rain 1hr
in
rain 24hr
in
rain mn
in
humidity
%
barometer
mb
20260507143032 48 279 5.0 12.0 0.00 0.00 0.00 58 1015.8
20260507142527 48 309 4.0 12.0 0.00 0.00 0.00 59 1015.8
20260507142025 48 326 3.0 9.0 0.00 0.00 0.00 59 1015.8
20260507141521 49 288 3.0 9.0 0.00 0.00 0.00 60 1015.8
20260507141017 49 258 2.0 9.0 0.00 0.00 0.00 63 1015.8
20260507140514 48 292 2.0 8.0 0.00 0.00 0.00 65 1015.8
20260507140012 47 59 3.0 8.0 0.00 0.00 0.00 67 1015.8
20260507135509 47 306 3.0 8.0 0.00 0.00 0.00 68 1015.8
20260507135006 46 287 3.0 8.0 0.00 0.00 0.00 69 1015.8
20260507134502 45 9 3.0 8.0 0.00 0.00 0.00 67 1015.8
20260507133958 45 306 2.0 8.0 0.00 0.00 0.00 69 1015.8
20260507133454 45 257 2.0 8.0 0.00 0.00 0.00 67 1015.8
20260507132953 45 283 2.0 8.0 0.00 0.00 0.00 68 1015.8
20260507132448 45 261 3.0 10.0 0.00 0.00 0.00 67 1015.8
20260507131945 45 279 3.0 10.0 0.00 0.00 0.00 66 1015.5
20260507131442 47 298 4.0 12.0 0.00 0.00 0.00 66 1015.5
20260507130939 46 289 5.0 12.0 0.00 0.00 0.00 67 1015.5
20260507130436 46 338 3.0 11.0 0.00 0.00 0.00 68 1015.5
20260507125935 46 279 2.0 11.0 0.00 0.00 0.00 70 1015.5
20260507125433 44 293 1.0 4.0 0.00 0.00 0.00 70 1015.5
20260507124930 44 266 1.0 4.0 0.00 0.00 0.00 72 1015.5
20260507124426 44 267 1.0 4.0 0.00 0.00 0.00 73 1015.1
20260507123924 44 263 2.0 9.0 0.00 0.00 0.00 75 1015.1
20260507123421 44 242 2.0 9.0 0.00 0.00 0.00 75 1015.1
20260507122918 44 313 2.0 4.0 0.00 0.00 0.00 77 1015.1
20260507122413 43 260 2.0 6.0 0.00 0.00 0.00 79 1015.1
20260507121909 42 279 2.0 6.0 0.00 0.00 0.00 80 1015.1
20260507121404 42 281 1.0 3.0 0.00 0.00 0.00 82 1015.1
20260507120902 41 17 0.0 3.0 0.00 0.00 0.00 84 1015.1
20260507120358 41 291 0.0 3.0 0.00 0.00 0.00 85 1015.1
20260507115854 40 294 0.0 3.0 0.00 0.00 0.00 86 1015.1
20260507115350 39 36 0.0 2.0 0.00 0.00 0.00 86 1015.1
20260507114846 39 279 0.0 2.0 0.00 0.00 0.00 86 1015.1
20260507114343 38 277 0.0 2.0 0.00 0.00 0.00 87 1015.1
20260507113841 38 277 0.0 0.0 0.00 0.00 0.00 87 1014.8
20260507113337 37 277 0.0 0.0 0.00 0.00 0.00 87 1014.8
20260507112835 37 277 0.0 0.0 0.00 0.00 0.00 87 1014.8
20260507112332 36 277 0.0 0.0 0.00 0.00 0.00 88 1014.8
20260507111830 36 277 0.0 0.0 0.00 0.00 0.00 88 1014.8
20260507111326 35 277 0.0 0.0 0.00 0.00 0.00 89 1014.8
20260507110822 35 277 0.0 0.0 0.00 0.00 0.00 88 1014.8
20260507110319 35 277 0.0 0.0 0.00 0.00 0.00 88 1014.8
20260507105816 35 277 0.0 0.0 0.00 0.00 0.00 88 1014.5
20260507105312 35 277 0.0 0.0 0.00 0.00 0.00 88 1014.5
20260507104809 35 277 0.0 0.0 0.00 0.00 0.00 87 1014.5
20260507104306 35 277 0.0 0.0 0.00 0.00 0.00 87 1014.5
20260507103802 35 277 0.0 0.0 0.00 0.00 0.00 87 1014.5
20260507103258 35 277 0.0 0.0 0.00 0.00 0.00 86 1014.5
20260507102754 35 277 0.0 0.0 0.00 0.00 0.00 86 1014.5
20260507102251 35 277 0.0 0.0 0.00 0.00 0.00 86 1014.5
20260507101747 35 277 0.0 0.0 0.00 0.00 0.00 85 1014.1
20260507101242 35 277 0.0 0.0 0.00 0.00 0.00 85 1014.1
20260507100740 36 277 0.0 0.0 0.00 0.00 0.00 85 1014.1
20260507100238 36 277 0.0 2.0 0.00 0.00 0.00 84 1014.1
20260507095735 36 277 0.0 2.0 0.00 0.00 0.00 84 1014.1
20260507095226 36 277 0.0 0.0 0.00 0.00 0.00 84 1014.5
20260507094723 36 277 0.0 1.0 0.00 0.00 0.00 84 1014.5
20260507094220 36 277 0.0 1.0 0.00 0.00 0.00 84 1014.1
20260507093717 36 277 0.0 1.0 0.00 0.00 0.00 83 1014.1
20260507093216 37 277 0.0 1.0 0.00 0.00 0.00 83 1014.1
20260507092713 37 277 0.0 1.0 0.00 0.00 0.00 83 1014.1
20260507092209 37 277 0.0 1.0 0.00 0.00 0.00 83 1014.1
20260507091706 37 277 0.0 1.0 0.00 0.00 0.00 83 1014.1
20260507091202 37 277 0.0 0.0 0.00 0.00 0.00 83 1014.5
20260507090657 37 277 0.0 0.0 0.00 0.00 0.00 83 1014.5
20260507090155 38 277 0.0 0.0 0.00 0.00 0.00 82 1014.5
20260507085652 38 277 0.0 0.0 0.00 0.00 0.00 82 1014.5
20260507085149 38 277 0.0 0.0 0.00 0.00 0.00 82 1014.5
20260507084646 38 277 0.0 0.0 0.00 0.00 0.00 81 1014.5
20260507084142 39 277 0.0 0.0 0.00 0.00 0.00 80 1014.5
20260507083639 39 277 0.0 0.0 0.00 0.00 0.00 79 1014.5
20260507083136 39 277 0.0 0.0 0.00 0.00 0.00 79 1014.5
20260507082631 40 277 0.0 0.0 0.00 0.00 0.00 78 1014.5
20260507082128 40 277 0.0 1.0 0.00 0.00 0.00 77 1014.5
20260507081625 40 277 0.0 2.0 0.00 0.00 0.00 76 1014.5
20260507081121 41 277 0.0 2.0 0.00 0.00 0.00 74 1014.5
20260507080618 41 282 1.0 5.0 0.00 0.00 0.00 72 1014.8
20260507080114 42 306 2.0 5.0 0.00 0.00 0.00 70 1014.5
20260507075609 42 319 2.0 5.0 0.00 0.00 0.00 69 1014.5
20260507075105 42 330 2.0 6.0 0.00 0.00 0.00 69 1014.5
20260507074602 42 323 2.0 6.0 0.00 0.00 0.00 68 1014.5
20260507074101 42 305 2.0 6.0 0.00 0.00 0.00 67 1014.8
20260507073556 42 318 3.0 8.0 0.00 0.00 0.00 67 1014.8
20260507073053 43 306 2.0 8.0 0.00 0.00 0.00 67 1014.8
20260507072551 43 304 3.0 8.0 0.00 0.00 0.00 66 1014.5
20260507072048 43 281 4.0 11.0 0.00 0.00 0.00 65 1014.8
20260507071545 43 323 4.0 11.0 0.00 0.00 0.00 65 1014.8
20260507071041 43 319 3.0 8.0 0.00 0.00 0.00 65 1014.8
20260507070539 43 321 3.0 9.0 0.00 0.00 0.00 65 1014.8
20260507070035 44 291 4.0 9.0 0.00 0.00 0.00 65 1014.8
20260507065532 44 21 3.0 9.0 0.00 0.00 0.00 65 1014.8
20260507065029 44 296 3.0 8.0 0.00 0.00 0.00 65 1014.8
20260507064527 44 334 3.0 8.0 0.00 0.00 0.00 65 1014.8
20260507064025 44 294 3.0 8.0 0.00 0.00 0.00 65 1015.1
20260507063522 44 326 3.0 8.0 0.00 0.00 0.00 65 1015.1
20260507063019 44 325 2.0 5.0 0.00 0.00 0.00 65 1015.1
20260507062516 44 286 3.0 8.0 0.00 0.00 0.00 65 1015.1
20260507062014 44 238 4.0 12.0 0.00 0.00 0.00 64 1015.1
20260507061511 44 311 3.0 12.0 0.00 0.00 0.00 64 1015.1
20260507061009 44 298 3.0 8.0 0.00 0.00 0.00 64 1015.1
20260507060506 44 323 4.0 10.0 0.00 0.00 0.00 65 1015.1
20260507060003 44 337 4.0 10.0 0.00 0.00 0.00 64 1015.1
20260507055457 44 326 5.0 12.0 0.00 0.00 0.00 64 1015.1
20260507054954 44 294 6.0 14.0 0.00 0.00 0.00 63 1015.1
20260507054450 44 286 5.0 14.0 0.00 0.00 0.00 63 1015.1
20260507053948 44 304 4.0 12.0 0.00 0.00 0.00 64 1015.1
20260507053446 44 0 4.0 9.0 0.00 0.00 0.00 64 1015.1
20260507052944 44 289 3.0 10.0 0.00 0.00 0.00 65 1015.1
20260507052441 44 309 4.0 11.0 0.00 0.00 0.00 65 1015.1
20260507051938 44 314 4.0 11.0 0.00 0.00 0.00 65 1015.5
20260507051436 44 319 4.0 10.0 0.00 0.00 0.00 66 1015.1
20260507050932 44 288 4.0 9.0 0.00 0.00 0.00 66 1015.1
20260507050429 45 331 4.0 11.0 0.00 0.00 0.00 66 1015.5
20260507045926 45 318 4.0 11.0 0.00 0.00 0.00 66 1015.1
20260507045422 45 315 4.0 10.0 0.00 0.00 0.00 66 1015.5
20260507044920 45 302 4.0 12.0 0.00 0.00 0.00 66 1015.5
20260507044416 45 313 3.0 12.0 0.00 0.00 0.00 67 1015.1
20260507043912 45 343 4.0 12.0 0.00 0.00 0.00 67 1015.1
20260507043409 45 290 5.0 10.0 0.00 0.00 0.00 67 1015.1
20260507042905 45 270 4.0 9.0 0.00 0.00 0.00 68 1015.1
20260507042402 45 300 3.0 8.0 0.00 0.00 0.00 69 1015.1
20260507041857 45 312 3.0 10.0 0.00 0.00 0.00 70 1015.1
20260507041354 45 247 3.0 10.0 0.00 0.00 0.00 71 1015.1
20260507040852 45 309 2.0 7.0 0.00 0.00 0.00 72 1015.1
20260507040347 45 267 1.0 7.0 0.00 0.00 0.00 72 1015.1
20260507035844 45 279 1.0 6.0 0.00 0.00 0.00 71 1015.1
20260507035339 44 250 0.0 2.0 0.00 0.00 0.00 70 1015.1
20260507034837 44 226 0.0 1.0 0.00 0.00 0.00 70 1015.1
20260507034334 44 226 0.0 1.0 0.00 0.00 0.00 70 1015.1
20260507033832 44 226 0.0 1.0 0.00 0.00 0.00 70 1015.1
20260507033330 44 225 0.0 0.0 0.00 0.00 0.00 69 1015.1
20260507032826 44 225 0.0 0.0 0.00 0.00 0.00 69 1015.1
20260507032322 44 225 0.0 1.0 0.00 0.00 0.00 68 1015.1
20260507031819 44 225 0.0 2.0 0.00 0.00 0.00 68 1015.1
20260507031316 45 225 0.0 2.0 0.00 0.00 0.00 68 1014.8
20260507030812 45 225 0.0 2.0 0.00 0.00 0.00 67 1015.1
20260507030310 45 225 0.0 2.0 0.00 0.00 0.00 66 1015.1
20260507025807 45 225 0.0 2.0 0.00 0.00 0.00 66 1015.1
20260507025306 45 225 0.0 2.0 0.00 0.00 0.00 66 1015.1
20260507024802 45 225 0.0 2.0 0.00 0.00 0.00 65 1015.1
20260507024259 45 250 0.0 1.0 0.00 0.00 0.00 66 1015.1
20260507023755 45 250 0.0 1.0 0.00 0.00 0.00 64 1015.1
20260507023251 45 216 0.0 2.0 0.00 0.00 0.00 65 1015.1
20260507022749 45 216 0.0 2.0 0.00 0.00 0.00 65 1015.1
20260507022245 45 216 0.0 2.0 0.00 0.00 0.00 64 1015.1
20260507021741 45 217 1.0 3.0 0.00 0.00 0.00 64 1015.1
20260507021237 45 217 1.0 3.0 0.00 0.00 0.00 63 1015.1
20260507020735 46 216 1.0 3.0 0.00 0.00 0.00 62 1014.8
20260507020231 46 228 0.0 3.0 0.00 0.00 0.00 62 1014.8
20260507015729 46 207 0.0 3.0 0.00 0.00 0.00 62 1014.8
20260507015226 46 206 1.0 3.0 0.00 0.00 0.00 61 1014.8
20260507014723 46 216 1.0 3.0 0.00 0.00 0.00 60 1015.1
20260507014219 46 216 1.0 3.0 0.00 0.00 0.00 59 1015.1
20260507013716 46 223 1.0 3.0 0.00 0.00 0.00 59 1015.1
20260507013214 46 223 1.0 3.0 0.00 0.00 0.00 58 1014.8
20260507012711 46 232 0.0 2.0 0.00 0.00 0.00 57 1014.8
20260507012206 47 232 1.0 3.0 0.00 0.00 0.00 57 1014.8
20260507011704 47 211 1.0 3.0 0.00 0.00 0.00 57 1014.8
20260507011200 47 198 1.0 2.0 0.00 0.00 0.00 57 1014.8
20260507010700 47 200 1.0 3.0 0.00 0.00 0.00 57 1014.8
20260507010156 47 212 2.0 4.0 0.00 0.00 0.00 56 1014.8
20260507005654 47 219 2.0 4.0 0.00 0.00 0.00 55 1014.8
20260507005155 47 223 1.0 4.0 0.00 0.00 0.00 56 1014.8
20260507004652 47 227 1.0 4.0 0.00 0.00 0.00 56 1014.8
20260507004149 47 207 1.0 3.0 0.00 0.00 0.00 56 1014.8
20260507003646 47 200 1.0 3.0 0.00 0.00 0.00 57 1014.8
20260507003145 47 196 1.0 6.0 0.00 0.00 0.00 56 1014.8
20260507002642 47 196 2.0 6.0 0.00 0.00 0.00 54 1014.5
20260507002138 47 192 2.0 4.0 0.00 0.00 0.00 54 1014.5
20260507001635 47 279 2.0 5.0 0.00 0.00 0.00 54 1014.5
20260507001133 48 184 2.0 5.0 0.00 0.00 0.00 55 1014.5
20260507000629 48 200 2.0 5.0 0.00 0.00 0.00 54 1014.5
20260507000124 48 184 3.0 5.0 0.00 0.00 0.00 54 1014.5
20260506235622 48 187 3.0 6.0 0.00 0.00 0.00 53 1014.5
20260506235122 48 219 3.0 6.0 0.00 0.00 0.00 53 1014.5
20260506234619 48 199 2.0 4.0 0.00 0.00 0.00 53 1014.5
20260506234116 48 236 2.0 4.0 0.00 0.00 0.00 53 1014.5
20260506233613 48 197 3.0 5.0 0.00 0.00 0.00 52 1014.5
20260506233110 48 227 3.0 7.0 0.00 0.00 0.00 52 1014.5
20260506232606 49 226 3.0 7.0 0.00 0.00 0.00 52 1014.5
20260506232102 49 189 3.0 7.0 0.00 0.00 0.00 50 1014.5
20260506231559 49 207 4.0 7.0 0.00 0.00 0.00 51 1014.5
20260506231057 49 226 3.0 7.0 0.00 0.00 0.00 50 1014.5
20260506230553 49 215 4.0 7.0 0.00 0.00 0.00 51 1014.5
20260506230051 49 223 3.0 7.0 0.00 0.00 0.00 51 1014.5
20260506225548 50 213 2.0 6.0 0.00 0.00 0.00 50 1014.5
20260506225044 50 231 2.0 6.0 0.00 0.00 0.00 51 1014.5
20260506224541 50 230 3.0 6.0 0.00 0.00 0.00 52 1014.5
20260506224037 50 224 3.0 6.0 0.00 0.00 0.00 50 1014.5
20260506223533 50 169 2.0 5.0 0.00 0.00 0.00 50 1014.5
20260506223030 51 192 2.0 5.0 0.00 0.00 0.00 50 1014.5
20260506222527 51 233 3.0 5.0 0.00 0.00 0.00 51 1014.5
20260506222023 51 209 4.0 7.0 0.00 0.00 0.00 51 1014.5
20260506221521 50 186 5.0 8.0 0.00 0.00 0.00 50 1014.5
20260506221019 51 219 4.0 8.0 0.00 0.00 0.00 50 1014.5
20260506220514 51 190 4.0 8.0 0.00 0.00 0.00 49 1014.5
20260506220010 51 225 4.0 10.0 0.00 0.00 0.00 49 1014.5
20260506215507 51 162 4.0 10.0 0.00 0.00 0.00 50 1014.5
20260506215003 52 189 4.0 9.0 0.00 0.00 0.00 49 1014.5
20260506214500 52 207 5.0 9.0 0.00 0.00 0.00 48 1014.5
20260506213957 53 221 5.0 11.0 0.00 0.00 0.00 45 1014.1
20260506213455 54 202 5.0 12.0 0.00 0.00 0.00 46 1014.1
20260506212952 54 159 3.0 10.0 0.00 0.00 0.00 45 1014.1
20260506212448 54 212 3.0 6.0 0.00 0.00 0.00 46 1014.1
20260506211943 55 192 3.0 10.0 0.00 0.00 0.00 45 1014.1
20260506211439 55 237 3.0 10.0 0.00 0.00 0.00 47 1014.5
20260506210936 54 209 4.0 12.0 0.00 0.00 0.00 46 1014.5
20260506210433 53 159 5.0 12.0 0.00 0.00 0.00 46 1014.5
20260506205930 54 213 5.0 13.0 0.00 0.00 0.00 44 1014.5
20260506205426 55 226 4.0 13.0 0.00 0.00 0.00 44 1014.5
20260506204922 55 207 5.0 10.0 0.00 0.00 0.00 44 1014.5
20260506204420 55 244 6.0 11.0 0.00 0.00 0.00 47 1014.5
20260506203918 54 230 6.0 11.0 0.00 0.00 0.00 45 1014.5
20260506203415 54 182 7.0 14.0 0.00 0.00 0.00 44 1014.5
20260506202911 55 207 5.0 14.0 0.00 0.00 0.00 43 1014.5
20260506202409 55 157 4.0 10.0 0.00 0.00 0.00 43 1014.5
20260506201905 55 244 5.0 10.0 0.00 0.00 0.00 46 1014.5
20260506201403 55 224 5.0 11.0 0.00 0.00 0.00 44 1014.5
20260506200859 55 183 5.0 11.0 0.00 0.00 0.00 46 1014.5
20260506200355 55 212 6.0 10.0 0.00 0.00 0.00 46 1014.5
20260506195852 55 196 6.0 12.0 0.00 0.00 0.00 46 1014.8
20260506195349 55 208 5.0 12.0 0.00 0.00 0.00 44 1014.5
20260506194846 55 207 5.0 11.0 0.00 0.00 0.00 46 1014.8
20260506194342 55 210 5.0 9.0 0.00 0.00 0.00 45 1014.8
20260506193840 55 214 5.0 9.0 0.00 0.00 0.00 47 1014.8
20260506193337 55 196 5.0 9.0 0.00 0.00 0.00 45 1014.5
20260506192833 56 202 4.0 8.0 0.00 0.00 0.00 44 1014.5
20260506192330 57 215 5.0 11.0 0.00 0.00 0.00 46 1014.5
20260506191827 55 242 4.0 11.0 0.00 0.00 0.00 43 1014.5
20260506191323 55 198 3.0 10.0 0.00 0.00 0.00 45 1014.5
20260506190820 55 173 5.0 10.0 0.00 0.00 0.00 45 1014.5
20260506190316 55 163 6.0 14.0 0.00 0.00 0.00 43 1014.5
20260506185814 55 166 6.0 14.0 0.00 0.00 0.00 44 1014.5
20260506185310 55 195 6.0 11.0 0.00 0.00 0.00 47 1014.5
20260506184808 55 200 5.0 11.0 0.00 0.00 0.00 43 1014.5
20260506184305 55 189 6.0 11.0 0.00 0.00 0.00 48 1014.5
20260506183802 54 184 6.0 10.0 0.00 0.00 0.00 47 1014.5
20260506183257 55 217 6.0 10.0 0.00 0.00 0.00 48 1014.5
20260506182754 55 158 6.0 11.0 0.00 0.00 0.00 48 1014.5
20260506182252 54 207 5.0 11.0 0.00 0.00 0.00 47 1014.5
20260506181749 54 175 5.0 11.0 0.00 0.00 0.00 45 1014.5
20260506181247 55 218 5.0 12.0 0.00 0.00 0.00 51 1014.5
20260506180744 55 194 4.0 12.0 0.00 0.00 0.00 45 1014.5
20260506180239 55 242 4.0 10.0 0.00 0.00 0.00 51 1014.5
20260506175736 54 236 5.0 9.0 0.00 0.00 0.00 47 1014.8
20260506175233 54 194 4.0 10.0 0.00 0.00 0.00 49 1014.8
20260506174731 54 194 4.0 10.0 0.00 0.00 0.00 47 1014.8
20260506174227 54 236 5.0 12.0 0.00 0.00 0.00 48 1014.8
20260506173725 53 175 5.0 12.0 0.00 0.00 0.00 46 1014.8
20260506173222 53 217 4.0 12.0 0.00 0.00 0.00 47 1014.8
20260506172719 54 209 5.0 12.0 0.00 0.00 0.00 46 1015.1
20260506172215 53 204 5.0 11.0 0.00 0.00 0.00 45 1015.1
20260506171713 52 238 6.0 12.0 0.00 0.00 0.00 48 1015.1
20260506171210 53 234 5.0 12.0 0.00 0.00 0.00 46 1015.1
20260506170708 53 205 5.0 10.0 0.00 0.00 0.00 47 1015.1
20260506170204 52 182 4.0 10.0 0.00 0.00 0.00 48 1015.1
20260506165702 53 207 3.0 7.0 0.00 0.00 0.00 45 1015.1
20260506165159 53 149 3.0 8.0 0.00 0.00 0.00 46 1015.1
20260506164656 53 250 4.0 8.0 0.00 0.00 0.00 47 1015.1
20260506164153 52 192 4.0 10.0 0.00 0.00 0.00 50 1015.1
20260506163650 52 210 4.0 10.0 0.00 0.00 0.00 47 1015.1
20260506163145 53 198 3.0 9.0 0.00 0.00 0.00 51 1015.1
20260506162641 53 227 3.0 7.0 0.00 0.00 0.00 48 1015.1
20260506162139 53 315 3.0 9.0 0.00 0.00 0.00 49 1015.1
20260506161636 52 223 5.0 9.0 0.00 0.00 0.00 48 1015.1
20260506161133 51 238 5.0 10.0 0.00 0.00 0.00 49 1015.1
20260506160630 51 222 4.0 10.0 0.00 0.00 0.00 44 1015.1
20260506160127 53 191 4.0 10.0 0.00 0.00 0.00 48 1015.1
20260506155626 52 242 5.0 10.0 0.00 0.00 0.00 48 1015.1
20260506155122 51 169 3.0 9.0 0.00 0.00 0.00 49 1015.1
20260506153219 50 201 3.0 7.0 0.00 0.00 0.00 51 1015.1
20260506152715 51 237 3.0 7.0 0.00 0.00 0.00 47 1015.1
20260506152213 51 236 4.0 8.0 0.00 0.00 0.00 56 1014.8
20260506151712 51 219 4.0 8.0 0.00 0.00 0.00 53 1014.8
20260506151208 51 223 4.0 8.0 0.00 0.00 0.00 57 1015.1
20260506150704 50 202 3.0 8.0 0.00 0.00 0.00 58 1015.1
20260506150201 50 220 2.0 7.0 0.00 0.00 0.00 58 1014.8
20260506145658 50 205 2.0 6.0 0.00 0.00 0.00 55 1014.8
20260506145155 51 302 2.0 6.0 0.00 0.00 0.00 57 1014.8
20260506144653 50 104 2.0 6.0 0.00 0.00 0.00 51 1014.8
20260506144149 51 172 2.0 5.0 0.00 0.00 0.00 50 1014.8
20260506143647 51 19 1.0 6.0 0.00 0.00 0.00 54 1014.5